Location: Staunton
(38.1490°N, 79.0720°W)
Time: 23:46:44
(UTC-05:00)

ISS - Pass Details

Date: 09 December 2019
Orbit: 411 x 421 km, 51.6° (Epoch: 15 December)

Event Time Altitude Azimuth Distance (km) Brightness Sun altitude
Rises 17:49:15 0° 314° (NW) 2,357 0.4 -10.3°
Reaches altitude 10° 17:51:25 10° 322° (NW) 1,493 -0.7 -10.7°
Maximum altitude 17:54:36 41° 34° (NE) 622 -3.3 -11.3°
Enters shadow 17:57:04 15° 101° (E) 1,215 -1.9 -11.7°
